TimePST,TemperatureF,Dew PointF,Humidity,Sea Level PressureIn,VisibilityMPH,Wind Direction,Wind SpeedMPH,Gust SpeedMPH,PrecipitationIn,Events,Conditions,WindDirDegrees,DateUTC
12:15 AM,51.8,48.2,88,30.21,2.0,NW,3.5,-,N/A,,Overcast,320,2013-01-25 08:15:00
12:35 AM,51.8,48.2,88,30.21,1.8,NW,4.6,-,N/A,,Overcast,310,2013-01-25 08:35:00
12:55 AM,51.8,48.2,88,30.21,1.8,NW,4.6,-,N/A,,Overcast,320,2013-01-25 08:55:00
1:15 AM,51.8,48.2,88,30.21,1.8,NW,4.6,-,N/A,,Overcast,320,2013-01-25 09:15:00
1:35 AM,51.8,48.2,88,30.21,1.5,NW,5.8,-,N/A,,Overcast,320,2013-01-25 09:35:00
1:55 AM,51.8,48.2,88,30.21,1.5,North,3.5,-,N/A,,Overcast,350,2013-01-25 09:55:00
2:15 AM,51.8,48.2,88,30.21,1.5,North,4.6,-,N/A,,Overcast,360,2013-01-25 10:15:00
2:35 AM,51.8,46.4,82,30.20,1.2,North,3.5,-,N/A,,Overcast,10,2013-01-25 10:35:00
2:55 AM,51.8,46.4,82,30.21,0.5,North,3.5,-,N/A,,Overcast,350,2013-01-25 10:55:00
3:15 AM,51.8,48.2,88,30.20,0.2,Calm,Calm,-,N/A,,Overcast,0,2013-01-25 11:15:00
3:35 AM,51.8,46.4,82,30.19,0.2,NNE,3.5,-,N/A,,Overcast,20,2013-01-25 11:35:00
3:55 AM,50.0,46.4,87,30.19,0.2,NNE,3.5,-,N/A,,Overcast,30,2013-01-25 11:55:00
4:15 AM,50.0,46.4,87,30.18,0.2,North,4.6,-,N/A,,Overcast,10,2013-01-25 12:15:00
4:35 AM,51.8,46.4,82,30.18,0.2,NNE,3.5,-,N/A,,Overcast,20,2013-01-25 12:35:00
4:55 AM,51.8,48.2,88,30.18,0.2,Calm,Calm,-,N/A,,Overcast,0,2013-01-25 12:55:00
5:35 AM,51.8,48.2,88,30.19,0.2,Calm,Calm,-,N/A,,Overcast,0,2013-01-25 13:35:00
5:55 AM,51.8,46.4,82,30.19,0.2,Calm,Calm,-,N/A,,Overcast,0,2013-01-25 13:55:00
6:15 AM,51.8,48.2,88,30.18,0.2,Calm,Calm,-,N/A,,Overcast,0,2013-01-25 14:15:00
6:35 AM,51.8,48.2,88,30.18,1.2,Calm,Calm,-,N/A,,Overcast,0,2013-01-25 14:35:00
6:55 AM,51.8,48.2,88,30.18,0.5,Calm,Calm,-,N/A,,Overcast,0,2013-01-25 14:55:00
7:15 AM,51.8,48.2,88,30.17,0.5,Calm,Calm,-,N/A,,Overcast,0,2013-01-25 15:15:00
7:35 AM,51.8,48.2,88,30.18,0.5,West,3.5,-,N/A,,Overcast,270,2013-01-25 15:35:00
7:55 AM,51.8,48.2,88,30.19,0.2,WSW,4.6,-,N/A,,Overcast,250,2013-01-25 15:55:00
8:15 AM,51.8,48.2,88,30.20,0.5,West,5.8,-,N/A,,Overcast,260,2013-01-25 16:15:00
8:35 AM,51.8,48.2,88,30.21,0.5,West,5.8,-,N/A,,Overcast,270,2013-01-25 16:35:00
8:55 AM,51.8,48.2,88,30.20,0.5,WNW,4.6,-,N/A,,Overcast,300,2013-01-25 16:55:00
9:15 AM,51.8,48.2,88,30.20,0.8,Calm,Calm,-,N/A,,Overcast,0,2013-01-25 17:15:00
9:35 AM,51.8,50.0,94,30.21,1.5,Calm,Calm,-,N/A,,Overcast,0,2013-01-25 17:35:00
9:55 AM,51.8,50.0,94,30.20,1.8,Calm,Calm,-,N/A,,Overcast,0,2013-01-25 17:55:00
10:15 AM,53.6,48.2,82,30.21,1.5,SSE,3.5,-,N/A,,Overcast,150,2013-01-25 18:15:00
10:35 AM,53.6,51.8,94,30.20,1.8,Calm,Calm,-,N/A,,Overcast,0,2013-01-25 18:35:00
10:55 AM,53.6,51.8,94,30.19,2.0,SSW,3.5,-,N/A,,Overcast,210,2013-01-25 18:55:00
11:15 AM,55.4,51.8,88,30.18,2.5,WSW,3.5,-,N/A,,Overcast,240,2013-01-25 19:15:00
11:35 AM,57.2,51.8,82,30.18,2.5,WNW,4.6,-,N/A,,Overcast,290,2013-01-25 19:35:00
11:55 AM,57.2,51.8,82,30.16,3.0,West,4.6,-,N/A,,Overcast,260,2013-01-25 19:55:00
12:15 PM,57.2,51.8,82,30.15,3.0,West,4.6,-,N/A,,Overcast,260,2013-01-25 20:15:00
12:35 PM,57.2,51.8,82,30.15,3.0,West,3.5,-,N/A,,Overcast,270,2013-01-25 20:35:00
12:55 PM,57.2,51.8,82,30.14,3.0,West,3.5,-,N/A,,Overcast,280,2013-01-25 20:55:00
1:15 PM,57.2,51.8,82,30.13,3.0,NW,4.6,-,N/A,,Overcast,310,2013-01-25 21:15:00
1:35 PM,57.2,51.8,82,30.12,2.5,NNW,5.8,-,N/A,,Overcast,340,2013-01-25 21:35:00
1:55 PM,57.2,51.8,82,30.11,2.5,NNW,8.1,-,N/A,,Overcast,340,2013-01-25 21:55:00
2:15 PM,55.4,51.8,88,30.10,2.5,North,9.2,-,N/A,,Overcast,350,2013-01-25 22:15:00
2:35 PM,55.4,51.8,88,30.10,2.0,NNW,8.1,-,N/A,,Overcast,340,2013-01-25 22:35:00
2:55 PM,55.4,51.8,88,30.10,2.0,NNW,8.1,-,N/A,,Overcast,340,2013-01-25 22:55:00
3:15 PM,55.4,51.8,88,30.10,2.0,North,8.1,-,N/A,,Overcast,350,2013-01-25 23:15:00
3:35 PM,55.4,51.8,88,30.09,3.0,North,8.1,-,N/A,,Overcast,350,2013-01-25 23:35:00
3:55 PM,55.4,51.8,88,30.09,3.0,North,5.8,-,N/A,,Overcast,350,2013-01-25 23:55:00
4:15 PM,57.2,51.8,82,30.08,4.0,NNW,5.8,-,N/A,,Overcast,340,2013-01-26 00:15:00
4:35 PM,57.2,51.8,82,30.09,5.0,North,3.5,-,N/A,,Overcast,360,2013-01-26 00:35:00
4:55 PM,57.2,51.8,82,30.08,7.0,NNW,5.8,-,N/A,,Overcast,330,2013-01-26 00:55:00
5:15 PM,55.4,51.8,88,30.08,7.0,North,3.5,-,N/A,,Overcast,350,2013-01-26 01:15:00
5:35 PM,55.4,51.8,88,30.09,8.0,Calm,Calm,-,N/A,,Overcast,0,2013-01-26 01:35:00
5:55 PM,55.4,51.8,88,30.08,8.0,Calm,Calm,-,N/A,,Overcast,0,2013-01-26 01:55:00
6:15 PM,55.4,51.8,88,30.08,8.0,Calm,Calm,-,N/A,,Overcast,0,2013-01-26 02:15:00
6:35 PM,55.4,51.8,88,30.08,8.0,Calm,Calm,-,N/A,,Overcast,0,2013-01-26 02:35:00
6:55 PM,55.4,51.8,88,30.08,9.0,NNW,3.5,-,N/A,,Overcast,330,2013-01-26 02:55:00
7:15 PM,55.4,51.8,88,30.08,7.0,Calm,Calm,-,N/A,,Overcast,0,2013-01-26 03:15:00
7:35 PM,55.4,51.8,88,30.08,7.0,NNW,4.6,-,N/A,,Overcast,330,2013-01-26 03:35:00
7:55 PM,55.4,51.8,88,30.09,7.0,NNW,3.5,-,N/A,,Overcast,330,2013-01-26 03:55:00
8:15 PM,55.4,51.8,88,30.08,7.0,Calm,Calm,-,N/A,,Overcast,0,2013-01-26 04:15:00
8:35 PM,55.4,51.8,88,30.08,7.0,North,3.5,-,N/A,,Overcast,10,2013-01-26 04:35:00
8:55 PM,55.4,51.8,88,30.08,8.0,North,3.5,-,N/A,,Overcast,350,2013-01-26 04:55:00
9:15 PM,55.4,51.8,88,30.08,8.0,North,4.6,-,N/A,,Overcast,350,2013-01-26 05:15:00
9:35 PM,55.4,51.8,88,30.08,8.0,NNW,5.8,-,N/A,,Overcast,330,2013-01-26 05:35:00
9:55 PM,55.4,51.8,88,30.08,7.0,NNW,5.8,-,N/A,,Overcast,330,2013-01-26 05:55:00
10:15 PM,55.4,51.8,88,30.07,7.0,North,4.6,-,N/A,,Overcast,350,2013-01-26 06:15:00
10:35 PM,55.4,51.8,88,30.07,5.0,NNW,4.6,-,N/A,,Overcast,340,2013-01-26 06:35:00
10:55 PM,55.4,51.8,88,30.06,4.0,NNW,3.5,-,N/A,,Overcast,340,2013-01-26 06:55:00
11:15 PM,55.4,51.8,88,30.06,4.0,NW,5.8,-,N/A,,Overcast,320,2013-01-26 07:15:00
11:35 PM,55.4,51.8,88,30.06,3.0,NW,3.5,-,N/A,,Overcast,320,2013-01-26 07:35:00
11:55 PM,55.4,51.8,88,30.06,4.0,NW,3.5,-,N/A,,Overcast,320,2013-01-26 07:55:00